www.pogodaiklimat.ru

Погода и климат >> Архив погоды >> Филиппины >> Малайбалай


ПОГОДА в Малайбалае

  • Прогноз погоды в Малайбалае
  • Монитор погоды в Малайбалае

АРХИВ ПОГОДЫ в Малайбалае

Время (UTC), дата Ветер
(напр.,м/с)
 
Видим.   Явления Облачность Т
(С)
Тd
(С)
f
(%)
Тe
(С)
Тes
(С)
Комфортность P
(гПа)
Po
(гПа)
Тmin
(С)
Tmax
(С)
R
(мм)
R24
(мм)
S
(см)
09 12.08 В 1 20 км мгла {туман} 10/5 450 м
[Cb cap Ac As]
+28.8 +22.1 67 +37 +38 очень
душно
1008.8 941.8
12 12.08 штиль 0 18 км {ливн. осадки} 10/5 450 м
[Cb cap Ac As]
+25.8 +22.3 81 +34 +34 очень
душно
1010.8 943.9 +31.0 0.2
15 12.08 штиль 0 18 км 9/4 450 м
[Cb cap Ac As]
+24.0 +22.6 92 +31 +31 очень
душно
1012.8 946.0
18 12.08 штиль 0 18 км 9/4 450 м
[Cb cap Ac As]
+22.2 +21.2 94 +29 +29 очень
душно
1011.2 944.5
21 12.08 штиль 0 18 км 8/3 450 м
[Cb cap Ac As]
+21.0 +20.3 96 +26 +26 душно 1011.3 944.1
00 13.08 З 1 20 км мгла {туман} 9/4 450 м
[Cb cap Ac As]
+23.0 +20.4 85 +30 +32 очень
душно
1012.8 945.5 +19.5 0.2
03 13.08 Ю 1 20 км мгла {туман} 8/3 450 м
[Cu med, cong Ac cuf]
+28.2 +22.9 73 +38 +46 очень
душно
1011.6 944.8
06 13.08 ЮВ 1 20 км мгла {туман} 3/3 450 м
[Cu hum]
+30.5 +21.8 60 +39 +51 опасность
солнечного
удара
1009.1 942.5
09 13.08 Ю 4 18 км мгла {туман} 10/4 450 м
[Cb cap Ac As]
+29.0 +22.4 68 +38 +38 очень
душно
1009.6 942.8
12 13.08 штиль 0 15 км 8/4 450 м
[Cb cap Ac As]
+26.3 +21.9 77 +34 +34 очень
душно
1012.0 944.8 +31.5
15 13.08 штиль 0 18 км 9/4 450 м
[Cb cap Ac As]
+25.0 +22.3 85 +33 +33 очень
душно
1012.8 946.0
18 13.08 штиль 0 18 км 6/3 450 м
[Cu med, cong Ac cuf]
+23.0 +21.6 92 +31 +31 очень
душно
1011.8 945.0
21 13.08 штиль 0 18 км 4/3 450 м
[Cu med, cong Ci fib]
+21.0 +20.0 94 +26 +26 душно 1012.2 945.2
00 14.08 Ю 1 20 км мгла {туман} 3/3 450 м
[Cu hum]
+24.0 +22.5 91 +31 +38 очень
душно
1012.9 945.8 +20.0
03 14.08 Ю 1 20 км мгла {туман} 3/3 450 м
[Cu hum]
+29.2 +23.7 72 +40 +58 опасность
солнечного
удара
1011.0 944.5
06 14.08 ЮЗ 1 20 км мгла {туман} 8/3 450 м
[Cu med, cong Ac As Cs]
+31.0 +23.6 65 +42 +50 опасность
перегрева
1009.2 942.8
09 14.08 ЮВ 1 18 км слаб. ливневой дождь {гроза} 10/5 450 м
[Cb cap Ac As]
+24.8 +23.7 94 +34 +34 очень
душно
1011.4 943.8 2
12 14.08 штиль 0 10 км слаб. дождь {гроза} 10/5 450 м
[Cb cap As trans]
+23.1 +21.6 91 +31 +31 очень
душно
1012.4 944.9 +31.5 8
15 14.08 штиль 0 18 км 5/3 450 м
[Cu med, cong Ac trans]
+22.0 +21.0 94 +28 +28 душно 1013.1 946.0
18 14.08 штиль 0 18 км 8/3 450 м
[Cu med, cong Ac As]
+22.0 +21.0 94 +28 +28 душно 1011.8 945.0
21 14.08 штиль 0 18 км 9/3 450 м
[Cu med, cong Ac As]
+21.0 +20.3 96 +26 +26 душно 1013.2 945.5
00 15.08 штиль 0 20 км мгла {туман} 1/1 450 м
[Cu med, cong]
+24.0 +22.4 91 +31 +41 очень
душно
1013.9 946.3 +20.0 8
03 15.08 Ю 1 20 км мгла {туман} 5/4 450 м
[Cu med, cong Ac cuf Ci fib]
+28.9 +25.2 80 +42 +56 опасность
перегрева
1012.3 945.3
06 15.08 Ю 2 20 км мгла {туман} 6/4 450 м
[Cu med, cong Ac cuf Ci fib]
+31.0 +22.9 62 +41 +48 опасность
перегрева
1016.5 942.2
09 15.08 штиль 0 20 км мгла {туман} 9/4 450 м
[Cb cap Ac As]
+27.0 +23.0 79 +36 +36 очень
душно
1010.3 943.2
12 15.08 штиль 0 18 км в посл. час ливневой дождь {гроза} 10/5 450 м
[Cb cap Ac As]
+24.0 +22.6 92 +31 +31 очень
душно
1012.2 945.0 +31.5 1
15 15.08 штиль 0 10 км слаб. дождь 10/5 450 м
[St As trans]
+23.2 +22.1 94 +32 +32 очень
душно
1013.1 946.2 2
18 15.08 штиль 0 18 км {дождь} 10/5 450 м
[Cb cap Ac As]
+22.8 +22.0 95 +31 +31 очень
душно
1011.7 944.9 2
21 15.08 штиль 0 18 км 10/5 450 м
[Cb cap Ac As]
+22.5 +21.8 96 +30 +30 очень
душно
1012.7 945.4
00 16.08 штиль 0 20 км мгла {туман} 8/3 450 м
[Cu med, cong Ac cuf Ci ing]
+25.5 +22.1 81 +33 +38 очень
душно
1012.8 945.5 +21.0 3
03 16.08 Ю 1 20 км мгла {туман} 8/3 450 м
[Cu med, cong Ac cuf Ci fib]
+29.0 +22.4 68 +38 +49 очень
душно
1011.6 944.8
06 16.08 Ю 1 20 км мгла {туман} 8/3 450 м
[Cu med, cong Ac cuf Ci fib]
+31.0 +22.9 62 +41 +49 опасность
перегрева
1009.1 942.5
09 16.08 штиль 0 18 км слаб. ливневой дождь {туман} 10/5 450 м
[Cb cap Ac As]
+26.4 +23.9 86 +36 +36 очень
душно
1010.2 943.1 0.0
12 16.08 штиль 0 18 км слаб. ливневой дождь {туман} 10/5 450 м
[Cb cap Ac As]
+24.0 +22.6 92 +31 +31 очень
душно
1012.2 945.0 +31.4 1
15 16.08 штиль 0 18 км {дождь} 10/5 450 м
[Cb cap Ac As]
+22.5 +22.1 98 +30 +30 очень
душно
1012.0 945.0 1
18 16.08 штиль 0 18 км {дождь} 3/3 450 м
[Cu hum]
+22.0 +21.6 98 +29 +29 очень
душно
1010.5 943.8 1
21 16.08 штиль 0 18 км 1/1 450 м
[Cu hum]
+21.5 +21.1 98 +27 +27 душно 1011.6 944.4
00 17.08 Ю 2 20 км мгла {туман} 8/3 450 м
[Cu hum Cs]
+26.0 +22.0 79 +34 +38 очень
душно
1012.4 945.4 +21.6 2
03 17.08 Ю 1 20 км мгла {туман} 9/4 450 м
[Cb cap Ac As]
+28.3 +21.1 65 +36 +42 очень
душно
1011.6 944.6
06 17.08 штиль 0 15 км ливневой дождь {туман} 10/5 450 м
[Cb cap Ac As]
+26.2 +23.3 84 +35 +38 очень
душно
1010.6 946.5 12
09 17.08 штиль 0 18 км слаб. ливневой дождь {гроза} 10/4 450 м
[Cb cap Ac As]
+23.6 +22.8 95 +31 +31 очень
душно
1010.1 942.6 20
12 17.08 штиль 0 18 км {гроза, ливн. осадки} 10/3 450 м
[Cb cap Ac As]
+23.0 +22.3 96 +31 +31 очень
душно
1011.8 944.6 +31.0 20
15 17.08 штиль 0 18 км 9/3 450 м
[Cb cap Ac As]
+22.7 +22.0 96 +31 +31 очень
душно
1012.5 945.8
18 17.08 штиль 0 18 км 10/3 450 м
[Cu med, cong Ac As]
+21.6 +21.0 96 +27 +27 душно 1011.6 944.2
21 17.08 З 1 15 км зарница {гроза} 8/3 570 м
[Cb cap Cs]
+24.7 +23.1 91 +33 +33 очень
душно
1010.1 1009.7
00 18.08 Ю 1 20 км мгла {туман} 9/3 450 м
[Cu hum Ac trans Cs]
+24.0 +21.7 87 +31 +34 очень
душно
1012.9 945.4 +20.5 32 32
03 18.08 ЮВ 2 20 км мгла {туман} 9/3 450 м
[Cu med, cong Ac As Cs]
+28.5 +22.5 70 +37 +46 очень
душно
1011.7 944.7
06 18.08 штиль 0 18 км осадки на расстоянии {гроза, ливн. осадки} 10/5 450 м
[Cb cap Cs]
+26.5 +23.9 86 +37 +45 очень
душно
1008.9 941.9 4
09 18.08 штиль 0 15 км слаб. ливневой дождь {гроза} 10/5 450 м
[Cb cap As trans]
+25.2 +24.1 94 +35 +35 очень
душно
1008.7 941.5 0.8
12 18.08 штиль 0 15 км {гроза, ливн. осадки} 10/5 450 м
[Cb cap Ac As]
+23.0 +22.3 96 +31 +31 очень
душно
1011.6 944.2 +29.2 0.9
15 18.08 штиль 0 15 км 10/3 450 м
[Cb cap Ac As]
+22.0 +21.3 96 +29 +29 очень
душно
1011.1 944.2
18 18.08 штиль 0 18 км 8/3 450 м
[Cu med, cong Ac As]
+21.5 +21.1 98 +27 +27 душно 1009.8 942.7
21 18.08 штиль 0 18 км 10/3 450 м
[Cb calv Ac As]
+21.5 +21.1 98 +27 +27 душно 1010.6 943.0
00 19.08 штиль 0 18 км мгла {туман} 10/4 450 м
[Cb cap Ac As]
+23.7 +21.6 88 +30 +32 очень
душно
1011.5 944.1 +21.5 5
03 19.08 штиль 0 18 км мгла {туман} 5/3 450 м
[Cu med, cong Ac cuf]
+28.0 +23.5 77 +38 +55 опасность
солнечного
удара
1009.9 943.0

 

Местоположение метеостанции Малайбалай (Филиппины): широта 8.15 долгота 125.08 высота над уровнем моря 627 м.

В архиве по умолчанию представлена погода в Малайбалае за последнюю неделю. Архивные данные за месяц целиком и за предыдущие месяцы, начиная с января 2011 года, Вы можете получить, выбрав интересующий диапазон дат из раскрывающегося списка и нажав кнопку "Ввод!".


*Определитесь, кто Вы:
робот инопланетянин человек

Внимание! Время в таблицах - всемирное. Для получения местного времени необходимо прибавить поправку, которая равна 8 ч.

Смотрите также архив погоды в соседних городах и на ближайших метеорологических станциях:

Погода в Кагаян-де-Оро (Филиппины) (93 км)
Погода в Бутуане (Филиппины) (99 км)
Погода в Давао (Филиппины) (131 км)
Погода в Хинатуане (Филиппины) (140 км)
Погода в Котобато (Филиппины) (144 км)
Погода в Серигао Сити (Филиппины) (189 км)
Погода в Дипологе (Филиппины) (197 км)
Погода в Тагбиларане (Филиппины) (210 км)
Погода в Маасине (Филиппины) (222 км)
Погода в Генерал-Сантосе (Филиппины) (226 км)

Пояснения к столбцам:

Ветер - указаны скорость ветра в м/с - средняя за 10 мин, порывы в срок и между сроками (в фигурных скобках) и направление, откуда дует ветер: С - северный, СВ - северо-восточный, В - восточный, ЮВ - юго-восточный, Ю - южный, ЮЗ - юго-западный, З - западный, СЗ - северо-западный.
Видимость - горизонтальная дальность видимости в метрах или километрах. При видимости от 1 до 10 км при отсутствии осадков обычно наблюдается дымка, при ухудшении видимости до 1 км и менее - туман. В сухую погоду видимость может ухудшаться дымом, пылью или мглою.
Явления - указаны атмосферные явления, наблюдавшиеся в срок или в последний час перед сроком; фигурными скобками обозначены явления, наблюдавшиеся между сроками (за 1-3 часа до срока); квадратными скобками обозначены град или гололедные отложения с указанием их диаметра в мм.
Облачность - указаны через наклонную черту общая и нижняя облачность в баллах и высота нижней границы облаков в метрах; квадратными скобками обозначены формы облаков: Ci - перистые, Cs - перисто-слоистые, Cc - перисто-кучевые, Ac - высококучевые, As - высокослоистые, Sc - слоисто-кучевые, Ns - слоисто-дождевые, Cu - кучевые, Cb - кучево-дождевые. Подробнее классификацию облаков см. в Атласе облаков (PDF).
T - Температура воздуха - температура, измеренная на высоте 2 м над землей.
Td - Температура точки росы - температура, при понижении до которой содержащийся в воздухе водяной пар достигнет насыщения.
f - Относительная влажность воздуха - влажноcть воздуха, измеренная на высоте 2 м над землей.
Te - Эффективная температура - температура, которую ощущает одетый по сезону человек в тени. Характеристика душности погоды. При расчете учитывается влияние влажности воздуха и скорости ветра на теплоощущения человека.
Tes - Эффективная температура на солнце - температура, которую ощущает человек, с поправкой на солнечный нагрев. Характеристика знойности погоды. Зависит от высоты солнца над горизонтом, облачности и скорости ветра. Ночью, в пасмурную погоду, а также при ветре 12 м/с и более поправка равна нулю.
P - Атмосферное давление - приведенное к уровню моря атмосферное давление.
Po - Атмосферное давление - измеренное на уровне метеостанции атмосферное давление.
Tmin - Минимальная температура - минимум температуры воздуха на высоте 2 м над землей.
Tmax - Максимальная температура - максимум температуры воздуха на высоте 2 м над землей.
R - Количество осадков - Количество выпавших осадков за период времени, мм. При наведении курсора мыши на число - период времени, за который выпало указанное количество осадков.
R24 - Количество осадков - Количество выпавших осадков за 24 часа, мм.
S - Снежный покров - Высота снежного покрова, см. При наведении курсора мыши на число - состояние снежного покрова и степень покрытия местности в баллах.